User: anonymous   Login
Location: Meetinghouse Hill
(42.7686°N, 71.7752°W)
Time: 06:51:45
(UTC-04:00)
Language:

Iridium 34 - Orbit

View from above orbital plane
View from above orbital plane
View from above satellite
View from above satellite

Ground track
Ground track

The orbit data is extracted from the following two-line orbital elements,

1 24969U 97056E   17204.82702778 +.00000151 +00000-0 +46708-4 0  9998
2 24969 086.3979 303.4968 0002347 093.8183 266.3281 14.34218847037791
Epoch (UTC): 23 July 2017 19:50:55
Eccentricity: 0.0002347
inclination: 86.3979°
perigee height: 776 km
apogee height: 779 km
right ascension of ascending node: 303.4968°
argument of perigee: 93.8183°
revolutions per day: 14.34218847
mean anomaly at epoch: 266.3281°
orbit number at epoch: 3779

The dashed part of the orbit path shows where the satellite is in the earth's shadow,  

DLR